Weather History for KDKR - January, 2013

Change the Weather History Date:

Friday, January 4, 2013

  Actual Average (KLFK) Record (KLFK)
Temperature  
Mean Temperature 42 °F 48 °F  
Max Temperature 48 °F 59 °F 80 °F (1996)
Min Temperature 37 °F 38 °F 9 °F (1911)
Degree Days  
Heating Degree Days 22 17  
Month to date heating degree days 68  
Since 1 July heating degree days 846  
Cooling Degree Days 0 0  
Month to date cooling degree days 0  
Year to date cooling degree days 0  
Moisture  
Dew Point 37 °F    
Average Humidity 77    
Maximum Humidity 93    
Minimum Humidity 58    
Precipitation  
Precipitation 0.12 in 0.14 in 1.70 in (1934)
Month to date precipitation 0.52  
Year to date precipitation 0.52  
Snow  
Snow 0.00 in - - ()
Month to date snowfall  
Since 1 July snowfall  
Snow Depth -    
Sea Level Pressure  
Sea Level Pressure 30.46 in    
Wind  
Wind Speed 2 mph (NE)    
Max Wind Speed 8 mph    
Max Gust Speed -    
Visibility 10 miles    
Events Rain    
T = Trace of Precipitation, MM = Missing Value Source: NWS Daily Summary

Daily Weather History Graph

Daily Weather History Graph

Search for Another Location

Airport or City:

Trip Planner

Search our weather history database for the weather conditions in past years. The results will help you decide how hot, cold, wet, or windy it might be!

Date:

Astronomy

Jan. 04, 2013 Rise Set
Actual Time 7:21 AM CST 5:32 PM CST
Civil Twilight 6:54 AM CST 5:59 PM CST
Nautical Twilight 6:24 AM CST 6:29 PM CST
Astronomical Twilight 5:54 AM CST 6:58 PM CST
Moon No Moon Rise 11:33 AM CST (1/4)
Length of Visible Light 11h 04m
Length of Day
10h 11m
Waning Gibbous, 55% of the Moon is Illuminated
Jan 4
Waning Gibbous
Jan 4
Last Quarter
Jan 11
New
Jan 18
First Quarter
Jan 26
Full

Hourly Weather History & Observations

Time (CST) Temp. Windchill Dew Point Humidity Pressure Visibility Wind Dir Wind Speed Gust Speed Precip Events Conditions
12:15 AM 44.6 °F 40.7 °F 32.0 °F 61% 30.44 in 10.0 mi NNE 6.9 mph - N/A   Overcast
12:35 AM 44.6 °F 40.7 °F 32.0 °F 61% 30.44 in 10.0 mi NNE 6.9 mph - N/A   Overcast
12:55 AM 44.6 °F 41.4 °F 32.0 °F 61% 30.44 in 10.0 mi NE 5.8 mph - N/A   Mostly Cloudy
1:15 AM 44.6 °F 43.1 °F 32.0 °F 61% 30.44 in 10.0 mi ENE 3.5 mph - N/A   Overcast
1:35 AM 44.6 °F 42.2 °F 32.0 °F 61% 30.43 in 10.0 mi NE 4.6 mph - N/A   Overcast
1:55 AM 44.6 °F - 32.0 °F 61% 30.44 in 10.0 mi Calm Calm - N/A   Overcast
2:15 AM 44.6 °F 41.4 °F 32.0 °F 61% 30.43 in 10.0 mi NE 5.8 mph - N/A   Overcast
2:35 AM 44.6 °F - 32.0 °F 61% 30.43 in 10.0 mi Calm Calm - N/A   Overcast
2:55 AM 44.6 °F - 32.0 °F 61% 30.44 in 10.0 mi Calm Calm - N/A   Overcast
3:15 AM 44.6 °F - 32.0 °F 61% 30.45 in 10.0 mi Calm Calm - N/A   Overcast
6:15 AM 42.8 °F - 35.6 °F 76% 30.51 in 7.0 mi Calm Calm - N/A   Clear
6:35 AM 41.0 °F - 37.4 °F 87% 30.51 in 10.0 mi Calm Calm - N/A   Clear
7:15 AM 41.0 °F - 37.4 °F 87% 30.52 in 7.0 mi Calm Calm - 0.01 in Rain Light Rain
7:35 AM 37.4 °F - 35.6 °F 93% 30.53 in 4.0 mi Calm Calm - 0.05 in Rain Rain
7:55 AM 39.2 °F - 35.6 °F 87% 30.54 in 5.0 mi Calm Calm - 0.08 in Rain Light Rain
8:15 AM 39.2 °F - 37.4 °F 93% 30.55 in 5.0 mi Calm Calm - N/A Rain Light Rain
8:35 AM 39.2 °F - 37.4 °F 93% 30.54 in 5.0 mi Calm Calm - 0.02 in Rain Light Rain
8:55 AM 39.2 °F - 37.4 °F 93% 30.56 in 10.0 mi Calm Calm - 0.02 in   Scattered Clouds
9:15 AM 39.2 °F - 37.4 °F 93% 30.56 in 10.0 mi Calm Calm - N/A   Clear
9:35 AM 41.0 °F - 37.4 °F 87% 30.56 in 10.0 mi Calm Calm - N/A   Mostly Cloudy
9:55 AM 41.0 °F - 37.4 °F 87% 30.56 in 10.0 mi Calm Calm - N/A   Mostly Cloudy
10:15 AM 41.0 °F - 37.4 °F 87% 30.56 in 10.0 mi Calm Calm - N/A   Overcast
10:35 AM 42.8 °F - 37.4 °F 81% 30.57 in 10.0 mi Calm Calm - N/A   Mostly Cloudy
10:55 AM 42.8 °F - 37.4 °F 81% 30.56 in 10.0 mi Calm Calm - N/A   Mostly Cloudy
11:15 AM 42.8 °F - 37.4 °F 81% 30.55 in 9.0 mi Calm Calm - N/A   Mostly Cloudy
11:35 AM 44.6 °F - 39.2 °F 81% 30.54 in 7.0 mi Calm Calm - N/A   Mostly Cloudy
11:55 AM 44.6 °F 43.1 °F 37.4 °F 76% 30.52 in 10.0 mi NNE 3.5 mph - N/A   Scattered Clouds
12:15 PM 44.6 °F 41.4 °F 37.4 °F 76% 30.50 in 10.0 mi NE 5.8 mph - N/A   Scattered Clouds
12:35 PM 44.6 °F 43.1 °F 35.6 °F 71% 30.48 in 10.0 mi ENE 3.5 mph - N/A   Scattered Clouds
12:55 PM 46.4 °F 44.3 °F 35.6 °F 66% 30.48 in 10.0 mi ENE 4.6 mph - N/A   Partly Cloudy
1:15 PM 46.4 °F 42.4 °F 35.6 °F 66% 30.46 in 10.0 mi NE 8.1 mph - N/A   Scattered Clouds
1:35 PM 48.2 °F - 35.6 °F 62% 30.45 in 10.0 mi NE 8.1 mph - N/A   Scattered Clouds
1:55 PM 48.2 °F - 33.8 °F 58% 30.45 in 10.0 mi Calm Calm - N/A   Scattered Clouds
2:15 PM 48.2 °F - 33.8 °F 58% 30.44 in 10.0 mi ENE 4.6 mph - N/A   Clear
2:35 PM 48.2 °F - 33.8 °F 58% 30.43 in 10.0 mi NE 5.8 mph - N/A   Partly Cloudy
2:55 PM 48.2 °F - 33.8 °F 58% 30.42 in 10.0 mi NE 6.9 mph - N/A   Partly Cloudy
3:15 PM 48.2 °F - 33.8 °F 58% 30.43 in 10.0 mi Calm Calm - N/A   Scattered Clouds
3:35 PM 48.2 °F - 33.8 °F 58% 30.42 in 10.0 mi Calm Calm - N/A   Scattered Clouds
3:55 PM 48.2 °F - 33.8 °F 58% 30.42 in 10.0 mi Calm Calm - N/A   Scattered Clouds
4:15 PM 48.2 °F - 33.8 °F 58% 30.42 in 10.0 mi Calm Calm - N/A   Scattered Clouds
4:35 PM 48.2 °F - 33.8 °F 58% 30.42 in 10.0 mi NE 4.6 mph - N/A   Scattered Clouds
4:55 PM 48.2 °F - 33.8 °F 58% 30.42 in 10.0 mi Calm Calm - N/A   Partly Cloudy
5:15 PM 48.2 °F - 35.6 °F 62% 30.42 in 10.0 mi Calm Calm - N/A   Scattered Clouds
5:35 PM 46.4 °F - 37.4 °F 71% 30.43 in 10.0 mi Calm Calm - N/A   Scattered Clouds
5:55 PM 46.4 °F - 39.2 °F 76% 30.43 in 10.0 mi Calm Calm - N/A   Scattered Clouds
6:15 PM 44.6 °F - 42.8 °F 93% 30.44 in 9.0 mi Calm Calm - 0.01 in   Mostly Cloudy
6:35 PM 44.6 °F - 42.8 °F 93% 30.44 in 9.0 mi Calm Calm - 0.01 in Rain Light Rain
6:55 PM 44.6 °F - 42.8 °F 93% 30.44 in 10.0 mi Calm Calm - 0.02 in   Mostly Cloudy
7:15 PM 44.6 °F - 42.8 °F 93% 30.44 in 10.0 mi Calm Calm - N/A   Mostly Cloudy
7:35 PM 44.6 °F - 42.8 °F 93% 30.44 in 10.0 mi Calm Calm - N/A   Mostly Cloudy
7:55 PM 44.6 °F - 42.8 °F 93% 30.44 in 10.0 mi Calm Calm - N/A   Overcast
8:15 PM 44.6 °F - 42.8 °F 93% 30.44 in 10.0 mi Calm Calm - N/A   Overcast
8:35 PM 44.6 °F - 42.8 °F 93% 30.43 in 10.0 mi Calm Calm - N/A   Mostly Cloudy
8:55 PM 44.6 °F - 42.8 °F 93% 30.42 in 10.0 mi Calm Calm - N/A   Mostly Cloudy
9:15 PM 44.6 °F - 42.8 °F 93% 30.43 in 10.0 mi Calm Calm - N/A   Mostly Cloudy
9:35 PM 44.6 °F - 42.8 °F 93% 30.42 in 10.0 mi Calm Calm - N/A   Overcast
9:55 PM 44.6 °F - 42.8 °F 93% 30.41 in 10.0 mi Calm Calm - N/A   Overcast
10:15 PM 44.6 °F - 42.8 °F 93% 30.41 in 10.0 mi Calm Calm - N/A   Overcast
10:35 PM 44.6 °F - 41.0 °F 87% 30.41 in 10.0 mi Calm Calm - N/A   Mostly Cloudy
10:55 PM 44.6 °F - 42.8 °F 93% 30.41 in 10.0 mi Calm Calm - N/A   Mostly Cloudy
11:15 PM 44.6 °F - 42.8 °F 93% 30.41 in 10.0 mi Calm Calm - N/A   Mostly Cloudy
11:35 PM 44.6 °F - 41.0 °F 87% 30.41 in 10.0 mi Calm Calm - N/A   Mostly Cloudy
11:55 PM 44.6 °F - 41.0 °F 87% 30.41 in 9.0 mi Calm Calm - N/A   Mostly Cloudy